• In Deutschland
  • Länderverzeichnis
  • Für 7 Tage
  • Wassertemperatur
  • Satellitenkarten
  • Wetterkarte
  • Widgets
  • user-avatar
    Anmelden

    Stündliche Wetter Andora

    Heute, 24 August, Donnerstag

    Zeit Temperatur Niederschläge Wind Luftdruck Luftfeuchtigkeit
    00:00 +15°C° 0,2 mm 1 m/S 628 mmHg 77%
    01:00 +15°C° 0,2 mm 1 m/S 628 mmHg 77%
    02:00 +14°C° 0,2 mm 1 m/S 627 mmHg 76%
    03:00 +14°C° 0,2 mm 1 m/S 627 mmHg 76%
    04:00 +14°C° 0 mm 1 m/S 627 mmHg 73%
    05:00 +13°C° 0 mm 1 m/S 627 mmHg 70%
    06:00 +13°C° 0 mm 1 m/S 627 mmHg 67%
    07:00 +16°C° 0 mm 1 m/S 628 mmHg 58%
    08:00 +20°C° 0 mm 1 m/S 630 mmHg 49%
    09:00 +23°C° 0 mm 2 m/S 631 mmHg 40%
    10:00 +24°C° 0 mm 2 m/S 631 mmHg 37%
    11:00 +26°C° 0 mm 3 m/S 631 mmHg 35%
    12:00 +27°C° 0 mm 3 m/S 632 mmHg 33%
    13:00 +26°C° 0 mm 3 m/S 631 mmHg 34%
    14:00 +26°C° 0 mm 3 m/S 631 mmHg 35%
    15:00 +26°C° 0 mm 4 m/S 631 mmHg 37%
    16:00 +24°C° 0 mm 3 m/S 630 mmHg 41%
    17:00 +22°C° 0 mm 3 m/S 629 mmHg 46%
    18:00 +20°C° 0 mm 2 m/S 629 mmHg 51%
    19:00 +19°C° 0 mm 2 m/S 629 mmHg 54%
    20:00 +17°C° 0 mm 2 m/S 628 mmHg 57%
    21:00 +15°C° 0 mm 2 m/S 628 mmHg 60%
    22:00 +15°C° 0 mm 1 m/S 628 mmHg 58%
    23:00 +14°C° 0 mm 1 m/S 628 mmHg 56%

    Morgen, 25 August, Freitag

    Zeit Temperatur Niederschläge Wind Luftdruck Luftfeuchtigkeit
    00:00 +14°C° 0 mm 1 m/S 628 mmHg 54%
    01:00 +14°C° 0 mm 1 m/S 627 mmHg 56%
    02:00 +13°C° 0 mm 1 m/S 627 mmHg 57%
    03:00 +13°C° 0 mm 1 m/S 627 mmHg 58%
    04:00 +13°C° 0,1 mm 2 m/S 627 mmHg 59%
    05:00 +13°C° 0,1 mm 2 m/S 627 mmHg 59%
    06:00 +14°C° 0,1 mm 2 m/S 627 mmHg 60%
    07:00 +16°C° 0,1 mm 2 m/S 628 mmHg 53%
    08:00 +19°C° 0,1 mm 2 m/S 630 mmHg 46%
    09:00 +23°C° 0,1 mm 2 m/S 631 mmHg 38%
    10:00 +24°C° 0 mm 3 m/S 631 mmHg 36%
    11:00 +25°C° 0 mm 3 m/S 631 mmHg 33%
    12:00 +26°C° 0 mm 4 m/S 631 mmHg 31%
    13:00 +26°C° 0 mm 4 m/S 631 mmHg 31%
    14:00 +26°C° 0 mm 4 m/S 631 mmHg 31%
    15:00 +26°C° 0 mm 4 m/S 630 mmHg 31%
    16:00 +25°C° 0 mm 3 m/S 630 mmHg 37%
    17:00 +22°C° 0 mm 3 m/S 629 mmHg 44%
    18:00 +20°C° 0 mm 2 m/S 628 mmHg 50%
    19:00 +18°C° 0,2 mm 2 m/S 628 mmHg 54%
    20:00 +17°C° 0,2 mm 2 m/S 627 mmHg 59%
    21:00 +15°C° 0,2 mm 2 m/S 627 mmHg 63%
    22:00 +15°C° 0,4 mm 2 m/S 627 mmHg 62%
    23:00 +14°C° 0,4 mm 2 m/S 627 mmHg 62%

    übermorgen, 26 August, Samstag

    Zeit Temperatur Niederschläge Wind Luftdruck Luftfeuchtigkeit
    00:00 +14°C° 0,4 mm 2 m/S 627 mmHg 61%
    01:00 +14°C° 0,2 mm 2 m/S 626 mmHg 60%
    02:00 +14°C° 0,2 mm 2 m/S 626 mmHg 59%
    03:00 +13°C° 0,2 mm 2 m/S 626 mmHg 59%
    04:00 +14°C° 0,1 mm 2 m/S 626 mmHg 56%
    05:00 +14°C° 0,1 mm 2 m/S 626 mmHg 53%
    06:00 +15°C° 0,1 mm 2 m/S 626 mmHg 51%
    07:00 +17°C° 0,1 mm 2 m/S 627 mmHg 46%
    08:00 +19°C° 0,1 mm 2 m/S 628 mmHg 42%
    09:00 +22°C° 0,1 mm 3 m/S 629 mmHg 37%
    10:00 +24°C° 0 mm 3 m/S 630 mmHg 34%
    11:00 +25°C° 0 mm 3 m/S 630 mmHg 31%
    12:00 +27°C° 0 mm 4 m/S 630 mmHg 28%
    13:00 +26°C° 0 mm 4 m/S 630 mmHg 29%
    14:00 +26°C° 0 mm 4 m/S 630 mmHg 30%
    15:00 +26°C° 0 mm 4 m/S 629 mmHg 31%
    16:00 +25°C° 0 mm 3 m/S 629 mmHg 37%
    17:00 +22°C° 0 mm 3 m/S 628 mmHg 44%
    18:00 +20°C° 0 mm 2 m/S 627 mmHg 51%
    19:00 +19°C° 0 mm 2 m/S 627 mmHg 54%
    20:00 +17°C° 0 mm 2 m/S 627 mmHg 57%
    21:00 +16°C° 0 mm 2 m/S 627 mmHg 60%
    22:00 +15°C° 0 mm 2 m/S 627 mmHg 58%
    23:00 +15°C° 0 mm 2 m/S 626 mmHg 56%

    27 August, Sonntag

    Zeit Temperatur Niederschläge Wind Luftdruck Luftfeuchtigkeit
    00:00 +15°C° 0 mm 1 m/S 626 mmHg 54%
    01:00 +15°C° 0,1 mm 1 m/S 626 mmHg 53%
    02:00 +15°C° 0,1 mm 1 m/S 626 mmHg 52%
    03:00 +15°C° 0,1 mm 1 m/S 626 mmHg 51%
    04:00 +15°C° 0 mm 1 m/S 626 mmHg 53%
    05:00 +15°C° 0 mm 1 m/S 626 mmHg 54%
    06:00 +14°C° 0 mm 1 m/S 626 mmHg 56%
    07:00 +18°C° 0 mm 1 m/S 628 mmHg 51%
    08:00 +20°C° 0 mm 2 m/S 629 mmHg 46%
    09:00 +24°C° 0 mm 2 m/S 630 mmHg 41%
    10:00 +25°C° 0 mm 2 m/S 631 mmHg 38%
    11:00 +26°C° 0 mm 2 m/S 631 mmHg 35%
    12:00 +27°C° 0 mm 2 m/S 631 mmHg 32%
    13:00 +26°C° 0,2 mm 2 m/S 631 mmHg 34%
    14:00 +26°C° 0,2 mm 3 m/S 631 mmHg 37%
    15:00 +25°C° 0,2 mm 3 m/S 630 mmHg 40%
    16:00 +24°C° 0,3 mm 2 m/S 630 mmHg 46%
    17:00 +21°C° 0,3 mm 2 m/S 629 mmHg 53%
    18:00 +20°C° 0,3 mm 1 m/S 628 mmHg 59%
    19:00 +19°C° 0,1 mm 1 m/S 628 mmHg 60%
    20:00 +18°C° 0,1 mm 1 m/S 628 mmHg 62%
    21:00 +16°C° 0,1 mm 1 m/S 628 mmHg 63%
    22:00 +16°C° 0 mm 1 m/S 628 mmHg 60%
    23:00 +16°C° 0 mm 1 m/S 628 mmHg 56%

    28 August, Montag

    Zeit Temperatur Niederschläge Wind Luftdruck Luftfeuchtigkeit
    00:00 +16°C° 0 mm 1 m/S 628 mmHg 53%
    01:00 +16°C° 0 mm 1 m/S 628 mmHg 52%
    02:00 +15°C° 0 mm 1 m/S 628 mmHg 51%
    03:00 +15°C° 0 mm 1 m/S 627 mmHg 49%
    04:00 +15°C° 0 mm 1 m/S 628 mmHg 51%
    05:00 +15°C° 0 mm 1 m/S 628 mmHg 53%
    06:00 +15°C° 0 mm 1 m/S 628 mmHg 54%
    07:00 +19°C° 0 mm 1 m/S 629 mmHg 49%
    08:00 +22°C° 0 mm 1 m/S 630 mmHg 43%
    09:00 +25°C° 0 mm 2 m/S 631 mmHg 38%
    10:00 +26°C° 0 mm 2 m/S 631 mmHg 35%
    11:00 +27°C° 0 mm 2 m/S 631 mmHg 33%
    12:00 +28°C° 0 mm 3 m/S 631 mmHg 31%
    13:00 +28°C° 0 mm 3 m/S 631 mmHg 32%
    14:00 +28°C° 0 mm 3 m/S 631 mmHg 33%
    15:00 +28°C° 0 mm 3 m/S 630 mmHg 34%
    16:00 +26°C° 0,2 mm 2 m/S 630 mmHg 42%
    17:00 +24°C° 0,2 mm 2 m/S 629 mmHg 50%
    18:00 +22°C° 0,2 mm 1 m/S 628 mmHg 58%
    19:00 +21°C° 0,2 mm 1 m/S 628 mmHg 63%
    20:00 +19°C° 0,2 mm 1 m/S 628 mmHg 68%
    21:00 +18°C° 0,2 mm 1 m/S 627 mmHg 73%
    22:00 +18°C° 0,1 mm 1 m/S 627 mmHg 72%
    23:00 +16°C° 0,1 mm 1 m/S 627 mmHg 72%

    29 August, Dienstag

    Zeit Temperatur Niederschläge Wind Luftdruck Luftfeuchtigkeit
    00:00 +16°C° 0,1 mm 1 m/S 627 mmHg 71%
    01:00 +16°C° 0 mm 1 m/S 627 mmHg 70%
    02:00 +16°C° 0 mm 1 m/S 627 mmHg 68%
    03:00 +15°C° 0 mm 2 m/S 626 mmHg 66%
    04:00 +15°C° 0 mm 1 m/S 627 mmHg 66%
    05:00 +15°C° 0 mm 1 m/S 627 mmHg 66%
    06:00 +15°C° 0 mm 1 m/S 627 mmHg 66%
    07:00 +19°C° 0 mm 1 m/S 628 mmHg 59%
    08:00 +20°C° 0 mm 2 m/S 628 mmHg 52%
    09:00 +23°C° 0 mm 2 m/S 629 mmHg 46%
    10:00 +24°C° 0,1 mm 2 m/S 630 mmHg 42%
    11:00 +25°C° 0,1 mm 3 m/S 630 mmHg 39%
    12:00 +27°C° 0,1 mm 3 m/S 630 mmHg 36%
    13:00 +26°C° 0,1 mm 3 m/S 630 mmHg 38%
    14:00 +26°C° 0,1 mm 3 m/S 630 mmHg 40%
    15:00 +25°C° 0,1 mm 3 m/S 629 mmHg 42%
    16:00 +24°C° 0,2 mm 2 m/S 629 mmHg 46%
    17:00 +23°C° 0,2 mm 2 m/S 629 mmHg 51%
    18:00 +20°C° 0,2 mm 2 m/S 628 mmHg 56%
    19:00 +19°C° 0,5 mm 2 m/S 628 mmHg 62%
    20:00 +18°C° 0,5 mm 1 m/S 628 mmHg 67%
    21:00 +15°C° 0,5 mm 1 m/S 628 mmHg 73%
    22:00 +15°C° 0,1 mm 1 m/S 627 mmHg 73%
    23:00 +15°C° 0,1 mm 1 m/S 627 mmHg 73%
    Mehr zeigen